FW6820 Weather Reports


Display with metric or nautical units.
time (UTC)temp
F
wind
direction
speed
MPH
gust
MPH
rain 1hr
in
rain 24hr
in
rain mn
in
humidity
%
barometer
mb
20260505034541 76 120 9.0 18.0 0.00 0.00 0.00 81 1010.5
20260505033042 76 105 9.0 15.0 0.00 0.00 0.00 80 1010.4
20260505031539 76 148 11.0 20.0 0.00 0.00 0.00 79 1010.3
20260505030040 77 133 9.0 16.0 0.00 0.00 0.00 78 1010.6
20260505024548 77 148 10.0 18.0 0.00 0.00 0.00 78 1010.2
20260505023040 77 119 9.0 18.0 0.00 0.00 0.00 78 1010.1
20260505021544 77 142 9.0 16.0 0.00 0.00 0.00 78 1009.9
20260505020040 77 135 11.0 19.0 0.00 0.00 0.00 78 1009.7
20260505014539 77 133 8.0 17.0 0.00 0.00 0.00 77 1009.4
20260505013034 78 132 10.0 17.0 0.00 0.00 0.00 76 1009.5
20260505011539 79 123 9.0 17.0 0.00 0.00 0.00 74 1009.3
20260505010053 79 123 10.0 18.0 0.00 0.00 0.00 74 1009.5
20260505004538 80 140 12.0 18.0 0.00 0.00 0.00 72 1009.4
20260505003038 80 148 8.0 17.0 0.00 0.00 0.00 72 1009.4
20260505001536 81 134 10.0 18.0 0.00 0.00 0.00 70 1009.5
20260505000046 81 137 12.0 22.0 0.00 0.00 0.00 70 1009.7
20260504234540 81 140 10.0 17.0 0.00 0.00 0.00 69 1009.6
20260504233047 82 125 10.0 17.0 0.00 0.00 0.00 69 1009.6
20260504231543 82 111 9.0 22.0 0.00 0.00 0.00 69 1009.9
20260504230048 83 138 8.0 18.0 0.00 0.00 0.00 68 1009.8
20260504224542 83 127 9.0 17.0 0.00 0.00 0.00 69 1010.1
20260504223042 83 131 8.0 18.0 0.00 0.00 0.00 68 1009.9
20260504221540 83 144 9.0 17.0 0.00 0.00 0.00 68 1010.0
20260504220039 84 139 11.0 20.0 0.00 0.00 0.00 67 1010.0
20260504214533 84 138 11.0 16.0 0.00 0.00 0.00 67 1010.2
20260504213043 84 146 8.0 17.0 0.00 0.00 0.00 66 1010.2
20260504211542 84 111 8.0 16.0 0.00 0.00 0.00 67 1010.4
20260504210045 83 98 10.0 18.0 0.00 0.00 0.00 68 1010.7
20260504204546 83 132 11.0 18.0 0.00 0.00 0.00 67 1010.9
20260504203052 83 138 10.0 18.0 0.00 0.00 0.00 67 1011.1
20260504201543 83 138 10.0 21.0 0.00 0.00 0.00 68 1011.3
20260504200042 82 129 10.0 17.0 0.00 0.00 0.00 69 1011.5
20260504194539 81 122 12.0 19.0 0.00 0.00 0.00 70 1011.6
20260504193039 80 169 7.0 19.0 0.00 0.00 0.00 71 1011.9
20260504191537 81 131 14.0 20.0 0.00 0.00 0.00 70 1012.1
20260504190105 81 119 10.0 18.0 0.00 0.00 0.00 70 1012.2
20260504184542 80 151 8.0 16.0 0.00 0.00 0.00 71 1012.3
20260504183040 80 126 9.0 18.0 0.00 0.00 0.00 71 1012.4
20260504181542 80 92 11.0 17.0 0.00 0.00 0.00 70 1012.5
20260504180040 80 105 10.0 19.0 0.00 0.00 0.00 71 1012.8
20260504174543 79 134 11.0 18.0 0.00 0.00 0.00 71 1012.7
20260504173041 79 129 9.0 17.0 0.00 0.00 0.00 72 1013.0
20260504171540 78 153 10.0 17.0 0.00 0.00 0.00 72 1013.4
20260504081545 68 116 2.0 6.0 0.00 0.00 0.00 81 1015.1
20260504044545 72 132 5.0 9.0 0.00 0.00 0.00 72 1017.6
20260504043042 72 132 4.0 9.0 0.00 0.00 0.00 72 1018.0
20260504041541 72 100 4.0 10.0 0.00 0.00 0.00 71 1017.9
20260504040041 72 103 5.0 9.0 0.00 0.00 0.00 71 1018.0